• In Netherlands
  • List of Countries
  • For 7 days
  • Water Temperature
  • Satellite Maps
  • Weather Map
  • Weather Widgets
  • user-avatar
    Login

    Hourly Weather Rechytsa

    Today, 24 September, Monday

    Time Temperature Precipitation Wind Pressure Humidity
    00:00 +11°C° 0.3 mm 3 mps 747 mmHg 73%
    01:00 +11°C° 0.3 mm 3 mps 747 mmHg 77%
    02:00 +11°C° 0.3 mm 3 mps 746 mmHg 80%
    03:00 +10°C° 1.1 mm 4 mps 745 mmHg 82%
    04:00 +9°C° 1.1 mm 5 mps 744 mmHg 84%
    05:00 +9°C° 1.1 mm 6 mps 743 mmHg 86%
    06:00 +9°C° 1.6 mm 7 mps 742 mmHg 87%
    07:00 +9°C° 1.6 mm 7 mps 741 mmHg 87%
    08:00 +9°C° 1.6 mm 8 mps 739 mmHg 88%
    09:00 +10°C° 0.5 mm 8 mps 739 mmHg 88%
    10:00 +11°C° 0.5 mm 8 mps 738 mmHg 89%
    11:00 +12°C° 0.5 mm 7 mps 737 mmHg 89%
    12:00 +12°C° 0.2 mm 8 mps 737 mmHg 86%
    13:00 +11°C° 0.2 mm 9 mps 737 mmHg 84%
    14:00 +11°C° 0.2 mm 9 mps 738 mmHg 81%
    15:00 +10°C° 0 mm 9 mps 739 mmHg 79%
    16:00 +10°C° 0 mm 8 mps 740 mmHg 78%
    17:00 +9°C° 0 mm 8 mps 741 mmHg 76%
    18:00 +9°C° 0 mm 7 mps 742 mmHg 77%
    19:00 +9°C° 0 mm 6 mps 742 mmHg 78%
    20:00 +8°C° 0 mm 5 mps 743 mmHg 78%
    21:00 +8°C° 0 mm 5 mps 743 mmHg 81%
    22:00 +7°C° 0 mm 5 mps 744 mmHg 83%
    23:00 +7°C° 0 mm 4 mps 744 mmHg 86%

    Tomorrow, 25 September, Tuesday

    Time Temperature Precipitation Wind Pressure Humidity
    00:00 +7°C° 0 mm 4 mps 745 mmHg 87%
    01:00 +7°C° 0 mm 4 mps 745 mmHg 88%
    02:00 +7°C° 0 mm 4 mps 745 mmHg 89%
    03:00 +7°C° 0.1 mm 5 mps 746 mmHg 88%
    04:00 +7°C° 0.1 mm 5 mps 746 mmHg 86%
    05:00 +7°C° 0.1 mm 5 mps 747 mmHg 85%
    06:00 +7°C° 0.1 mm 5 mps 747 mmHg 83%
    07:00 +5°C° 0.1 mm 6 mps 748 mmHg 81%
    08:00 +5°C° 0.1 mm 6 mps 749 mmHg 79%
    09:00 +6°C° 0 mm 7 mps 750 mmHg 72%
    10:00 +8°C° 0 mm 7 mps 750 mmHg 65%
    11:00 +9°C° 0 mm 7 mps 751 mmHg 58%
    12:00 +9°C° 0.1 mm 7 mps 751 mmHg 55%
    13:00 +10°C° 0.1 mm 7 mps 752 mmHg 52%
    14:00 +10°C° 0.1 mm 7 mps 752 mmHg 50%
    15:00 +9°C° 0.1 mm 6 mps 752 mmHg 53%
    16:00 +9°C° 0.1 mm 5 mps 753 mmHg 55%
    17:00 +8°C° 0.1 mm 4 mps 753 mmHg 58%
    18:00 +7°C° 0.1 mm 4 mps 754 mmHg 62%
    19:00 +6°C° 0.1 mm 4 mps 755 mmHg 66%
    20:00 +6°C° 0.1 mm 4 mps 756 mmHg 69%
    21:00 +5°C° 0 mm 4 mps 756 mmHg 71%
    22:00 +5°C° 0 mm 4 mps 757 mmHg 72%
    23:00 +4°C° 0 mm 4 mps 757 mmHg 73%

    Day after tomorrow, 26 September, Wednesday

    Time Temperature Precipitation Wind Pressure Humidity
    00:00 +4°C° 0 mm 4 mps 758 mmHg 72%
    01:00 +4°C° 0 mm 4 mps 759 mmHg 71%
    02:00 +3°C° 0 mm 4 mps 759 mmHg 69%
    03:00 +3°C° 0 mm 4 mps 760 mmHg 70%
    04:00 +1°C° 0 mm 4 mps 760 mmHg 71%
    05:00 +1°C° 0 mm 4 mps 760 mmHg 72%
    06:00 +1°C° 0 mm 4 mps 761 mmHg 71%
    07:00 +3°C° 0 mm 4 mps 761 mmHg 70%
    08:00 +4°C° 0 mm 4 mps 762 mmHg 70%
    09:00 +6°C° 0 mm 4 mps 762 mmHg 64%
    10:00 +8°C° 0 mm 4 mps 762 mmHg 58%
    11:00 +10°C° 0 mm 4 mps 762 mmHg 52%
    12:00 +11°C° 0 mm 4 mps 761 mmHg 49%
    13:00 +12°C° 0 mm 4 mps 761 mmHg 47%
    14:00 +12°C° 0 mm 4 mps 760 mmHg 44%
    15:00 +12°C° 0 mm 4 mps 760 mmHg 47%
    16:00 +11°C° 0 mm 3 mps 760 mmHg 51%
    17:00 +10°C° 0 mm 3 mps 760 mmHg 54%
    18:00 +10°C° 0 mm 3 mps 759 mmHg 55%
    19:00 +8°C° 0 mm 4 mps 759 mmHg 57%
    20:00 +8°C° 0 mm 4 mps 759 mmHg 58%
    21:00 +8°C° 0 mm 4 mps 758 mmHg 58%
    22:00 +8°C° 0 mm 5 mps 758 mmHg 59%
    23:00 +8°C° 0 mm 5 mps 757 mmHg 59%

    27 September, Thursday

    Time Temperature Precipitation Wind Pressure Humidity
    00:00 +8°C° 0 mm 6 mps 757 mmHg 61%
    01:00 +7°C° 0 mm 6 mps 756 mmHg 62%
    02:00 +7°C° 0 mm 6 mps 755 mmHg 63%
    03:00 +7°C° 0 mm 6 mps 754 mmHg 64%
    04:00 +8°C° 0 mm 7 mps 754 mmHg 65%
    05:00 +8°C° 0 mm 7 mps 753 mmHg 66%
    06:00 +8°C° 0 mm 7 mps 753 mmHg 67%
    07:00 +8°C° 0 mm 7 mps 752 mmHg 67%
    08:00 +9°C° 0 mm 8 mps 752 mmHg 68%
    09:00 +9°C° 0.1 mm 8 mps 752 mmHg 68%
    10:00 +10°C° 0.1 mm 8 mps 752 mmHg 67%
    11:00 +11°C° 0.1 mm 8 mps 752 mmHg 67%
    12:00 +12°C° 0 mm 7 mps 752 mmHg 66%
    13:00 +12°C° 0 mm 7 mps 752 mmHg 65%
    14:00 +14°C° 0 mm 7 mps 752 mmHg 65%
    15:00 +14°C° 0 mm 6 mps 751 mmHg 68%
    16:00 +13°C° 0 mm 6 mps 751 mmHg 71%
    17:00 +13°C° 0 mm 5 mps 751 mmHg 74%
    18:00 +13°C° 0 mm 5 mps 752 mmHg 76%
    19:00 +13°C° 0 mm 5 mps 752 mmHg 78%
    20:00 +12°C° 0 mm 4 mps 752 mmHg 80%
    21:00 +12°C° 0 mm 4 mps 752 mmHg 82%
    22:00 +12°C° 0 mm 4 mps 752 mmHg 84%
    23:00 +12°C° 0 mm 4 mps 752 mmHg 86%

    28 September, Friday

    Time Temperature Precipitation Wind Pressure Humidity
    00:00 +12°C° 0 mm 4 mps 751 mmHg 88%
    01:00 +12°C° 0 mm 4 mps 751 mmHg 90%
    02:00 +12°C° 0 mm 4 mps 751 mmHg 92%
    03:00 +11°C° 0 mm 4 mps 751 mmHg 93%
    04:00 +11°C° 0 mm 4 mps 750 mmHg 94%
    05:00 +10°C° 0 mm 5 mps 750 mmHg 95%
    06:00 +12°C° 0 mm 5 mps 749 mmHg 91%
    07:00 +13°C° 0 mm 6 mps 749 mmHg 87%
    08:00 +14°C° 0 mm 7 mps 748 mmHg 83%
    09:00 +15°C° 0 mm 7 mps 748 mmHg 77%
    10:00 +17°C° 0 mm 7 mps 748 mmHg 71%
    11:00 +18°C° 0 mm 8 mps 748 mmHg 65%
    12:00 +17°C° 0.1 mm 7 mps 749 mmHg 68%
    13:00 +17°C° 0.1 mm 6 mps 749 mmHg 71%
    14:00 +16°C° 0.1 mm 6 mps 749 mmHg 74%
    15:00 +15°C° 0 mm 5 mps 750 mmHg 73%
    16:00 +15°C° 0 mm 4 mps 750 mmHg 72%
    17:00 +14°C° 0 mm 3 mps 750 mmHg 72%
    18:00 +13°C° 0 mm 3 mps 751 mmHg 74%
    19:00 +11°C° 0 mm 3 mps 752 mmHg 77%
    20:00 +10°C° 0 mm 2 mps 752 mmHg 79%
    21:00 +9°C° 0 mm 2 mps 753 mmHg 80%
    22:00 +9°C° 0 mm 3 mps 753 mmHg 81%
    23:00 +8°C° 0 mm 3 mps 754 mmHg 82%

    29 September, Saturday

    Time Temperature Precipitation Wind Pressure Humidity
    00:00 +8°C° 0 mm 3 mps 754 mmHg 84%
    01:00 +7°C° 0 mm 2 mps 754 mmHg 86%
    02:00 +6°C° 0 mm 2 mps 755 mmHg 88%
    03:00 +6°C° 0 mm 2 mps 755 mmHg 88%
    04:00 +6°C° 0 mm 2 mps 756 mmHg 87%
    05:00 +5°C° 0 mm 2 mps 756 mmHg 87%
    06:00 +6°C° 0 mm 2 mps 757 mmHg 82%
    07:00 +7°C° 0 mm 3 mps 757 mmHg 76%
    08:00 +7°C° 0 mm 3 mps 758 mmHg 70%
    09:00 +9°C° 0 mm 3 mps 758 mmHg 63%
    10:00 +10°C° 0 mm 4 mps 759 mmHg 57%
    11:00 +11°C° 0 mm 4 mps 759 mmHg 50%
    12:00 +12°C° 0 mm 4 mps 759 mmHg 47%
    13:00 +12°C° 0 mm 4 mps 759 mmHg 44%
    14:00 +12°C° 0 mm 4 mps 759 mmHg 41%
    15:00 +11°C° 0 mm 4 mps 760 mmHg 43%
    16:00 +10°C° 0 mm 3 mps 760 mmHg 46%
    17:00 +9°C° 0 mm 2 mps 760 mmHg 49%
    18:00 +8°C° 0 mm 2 mps 761 mmHg 52%
    19:00 +7°C° 0 mm 2 mps 761 mmHg 55%
    20:00 +5°C° 0 mm 2 mps 762 mmHg 59%
    21:00 +5°C° 0 mm 2 mps 762 mmHg 60%
    22:00 +5°C° 0 mm 1 mps 762 mmHg 62%
    23:00 +5°C° 0 mm 1 mps 763 mmHg 64%
    Show more

    3.3.7123123